CZ-3B DEB, 42459

Orbit data source: Space-Track

CZ-3B DEB, 42459 is space debris in HEO originally from a launch on Sat, 04 Sep 2010 UTC launched from the Xichang Space Center, China (XSC). Debris objects in space refer to the collection of defunct objects orbiting the Earth. Examples of debris include non-operational satellites, rocket bodies, and fragments generated from explosions, collisions, or faulty payload assembly.

Loading next visibility...
Identifier
42459, 2010-042AA
Orbit
HEO
Last TLE update
1 day ago
Origin
Manufacturer
CALT
Mission
Spacecraft
Bus & Motor
Unknown
Mass
Unknown
Launch date (UTC)
2010-09-04 (15 years ago)
Launch vehicle
Unknown
Launch site
Xichang Space Center, China (XSC)
Object type
Payload
Rocket body
Debris
Shape & HBR
Unknown
Radar Cross Section
Medium (>0.1 m² and <1 m²)

Expand to show TLE details & history

TLE from 1 day ago
0 CZ-3B DEB
1 42459U 10042AA  25181.25020837 -.00000139  00000-0  00000-0 0  9999
2 42459  27.6232  18.0785 7265118 145.3543 296.5490  1.87026965 72044
Epoch: 2025-06-30T06:00Z
TLE epoch observation values (Epoch: 2025-06-30T06:00:18.003Z)
Latitude
-0.00012°
Longitude
9.46659°
Altitude
26,224.35 km
Speed
3.182 km/s
True Right ascension
01h 12m 25s
True Declination
0° 00' 00"
Sunlit
Object was in daylight at epoch
Visualization orbit readout
Latitude
16.21209°
Longitude
42.88851°
Altitude
10,779.269 km
Speed
5.669 km/s
Apparent Right ascension
04h 28m 12s
Apparent Declination
2° 15' 05"
Sunlit
Object is in daylight
Visualization observer readout
Local Sidereal Time
20:45:00
Azimuth
71.033° E
Elevation
-17.959°
Doppler factor
1
Orbital elements
Apogee altitude
41,671.166 km
Perigee altitude
1,233.116 km
Semi-major axis
27,830.278 km
Eccentricity
0.72651
Inclination
27.6232°
RAAN
18.0785°
Arg. of periapsis
145.3543°
True anomaly
Unknown
Mean anomaly
296.549°
Eccentric anomaly
Unknown
Mean motion
0.46748 °/min
Orbital period
770.08 mins
BSTAR
0
Loading maneuver chart data...
Loading SW <> Apogee altitude chart data...
Loading historical data...
Loading historical data...
Loading historical data...
Loading historical data...
Loading historical data...
Loading historical data...
Loading historical data...

CZ-3B DEB Visibility forecast

Observer location: undefined°, undefined°

Span
Click to sort rows by Start time (UTC) header in descending order
Start Az.
Max El. time (UTC)
Max El. Az.
Max El.
End time (UTC)
End Az.
13 mins2025-07-01 22:31:46.801Z262.76° W2025-07-01 22:39:46.801Z215.315° SW20.549°2025-07-01 22:44:46.801Z162.443° S
|